Find Starlink 4082

NORAD ID: 52658 Int'l Des: 2022-053 Owner: SPXS Country: US Constellation: starlink operational
LEOCIRCULAR

当前视图

正在加载3D地球...

About Starlink 4082

Starlink 4082 (NORAD 52658) is a starlink constellation satellite (v1.5) launched May 18, 2022 by SPXS of US. It operates in LEO, CIRCULAR orbit with a mass of 297.00 kg.

关于 Starlink 4082

正在加载描述...

即将过境

Passes for default location (London). Set your location on the main map for personalized predictions.

高度历史

Loading altitude history...

两行轨道根数

1 52658U 22053C 26170.70461656 -.00000287 00000-0 47526-7 0 9998
2 52658 53.1617 56.0494 0001404 95.9699 264.1453 15.08829201226635
Epoch: Jun 19, 2026 • Age: 13 hours

当前状态

高度 542.2 km
速度 7.60 km/s
星下点 37.72°N, 92.63°E
发射日期 May 18, 2022
运行时间 4 years
类型 internet

技术详情

分类 Payload
质量 297.00 kg
干质量 275.00 kg
总质量 297.00 kg
长度 0.20 m
直径 2.80 m
跨度 9.00 m
形状 Box + pan
制造商 SPXS
平台类型 Starlink
阶段状态 In Orbit
所有者/国家 SPXS/US

Most Searched